Snowfall_Accumulation
1.5 3.3 6.7 2.3 2.3 2.5 3.0 3.4 3.2 2.1 1.1 1.8 1.5 1.4 1.1 0.8 0.8 0.9 0.8 0.8 0.6 0.4 0.3 0.2 0.1 0.1 0.2 0.1 0.1 0.1 0.2 0.3 0.1 0.1 0.1 0.1 0.1 0.2 0.1 0.1 0.2 0.2 0.2 0.1
3.6 5.5 1.4 0.7 1.0 2.3 3.3 4.7 3.3 1.9 1.2 2.3 2.4 1.9 1.5 1.2 1.3 1.2 1.1 1.2 0.7 0.4 0.3 0.2 0.2 0.2 0.1 0.1 0.1 0.2 0.2 0.4 0.3 0.3 0.2 0.1 0.1 0.2 0.3 0.3 0.2 0.2 0.4 0.3
6.3 2.9 0.7 1.0 2.5 4.1 4.1 4.3 3.5 3.5 2.0 1.7 3.1 3.8 2.3 1.6 1.3 1.0 0.9 1.1 0.9 0.6 0.5 0.3 0.3 0.3 0.3 0.3 0.2 0.3 0.3 0.4 0.4 0.5 0.3 0.1 0.1 0.2 0.4 0.6 0.2 0.4 0.4 0.5
3.0 1.0 0.8 1.8 2.5 3.6 5.4 1.9 2.4 3.0 4.5 6.2 5.8 10.5 4.0 2.4 1.3 1.2 1.0 1.1 0.8 0.7 0.5 0.4 0.3 0.4 0.4 0.4 0.2 0.3 0.3 0.4 0.4 0.4 0.3 0.4 0.3 0.6 0.4 0.7 0.7 0.5 0.3 0.4
4.1 1.1 1.3 2.9 2.2 2.0 3.1 1.3 1.8 3.0 5.9 9.0 4.3 8.8 6.9 2.1 2.4 1.9 1.7 1.5 1.2 1.0 0.8 0.6 0.6 0.6 0.6 0.6 0.5 0.2 0.3 0.3 0.5 0.4 0.7 0.3 0.5 0.6 0.7 0.5 0.8 0.3 0.2 0.4
1.7 0.8 1.0 1.9 0.9 1.0 1.6 1.7 2.5 3.6 8.8 15.1 5.6 7.2 7.6 5.3 5.2 3.5 2.5 2.0 1.6 1.2 1.1 0.8 0.7 0.7 0.7 0.8 0.8 0.5 0.4 0.4 0.4 0.7 0.6 0.7 0.5 0.5 0.6 0.4 0.8 1.0 0.4 0.3
10.0 2.3 1.0 0.8 2.3 1.9 3.2 11.0 20.9 21.8 21.2 11.5 3.6 5.0 7.5 4.5 3.9 3.7 3.3 2.6 2.2 1.7 1.5 1.5 1.5 1.1 1.0 1.2 1.1 1.1 1.0 0.6 0.6 0.8 1.1 1.1 0.8 0.9 0.9 1.1 0.8 1.0 0.8 0.6
14.1 12.3 2.1 1.4 2.3 4.2 4.2 8.4 15.3 15.4 10.7 5.5 3.8 5.6 6.4 3.4 2.8 2.7 2.4 2.3 2.0 1.7 1.7 1.7 1.9 1.5 1.1 1.3 1.5 1.5 1.2 1.1 0.8 0.9 1.1 1.4 1.3 1.2 1.0 1.1 0.8 0.9 1.1 0.9
11.1 10.2 1.3 1.1 1.3 2.1 5.9 7.5 6.4 13.2 9.6 7.0 5.9 5.8 4.3 2.4 2.3 2.3 2.2 1.9 1.8 1.8 1.9 1.9 1.8 1.7 1.5 1.4 1.7 1.9 1.5 1.4 1.0 1.0 1.2 1.4 1.1 1.2 1.1 1.1 1.3 1.0 1.3 0.9
7.9 11.3 2.5 0.7 0.9 1.4 2.5 4.2 10.2 19.0 16.3 9.8 6.1 5.2 6.4 4.4 3.7 3.4 3.1 2.5 2.4 2.0 1.8 1.8 2.0 2.1 2.0 1.9 2.0 2.0 1.8 1.7 1.3 1.1 1.2 1.5 1.4 1.1 1.1 1.1 1.0 1.0 1.2 1.4
4.3 11.2 7.1 3.2 5.6 5.8 5.2 8.0 12.3 15.1 13.5 12.2 8.1 6.9 5.9 4.6 4.5 4.3 3.9 3.2 2.8 2.5 2.2 1.9 1.9 2.1 2.0 1.9 1.9 1.9 1.7 1.5 1.5 1.3 1.2 1.3 1.5 1.1 1.1 1.1 0.9 0.9 1.0 1.2
3.8 10.1 10.6 4.3 1.6 1.6 3.7 6.9 10.5 17.2 13.1 9.9 9.1 7.7 3.6 3.1 3.5 3.4 3.2 2.9 2.7 2.5 2.5 2.4 2.2 2.1 2.2 2.0 2.0 2.4 2.2 1.9 1.5 1.4 1.4 1.2 1.3 1.0 1.1 1.1 1.2 0.9 1.0 1.0
6.8 14.4 15.7 7.2 4.1 2.6 6.2 5.3 6.3 11.2 15.6 12.9 10.9 7.9 3.2 2.6 2.8 2.7 2.7 2.7 2.7 2.6 2.4 2.2 2.2 2.2 2.2 2.2 2.3 2.5 2.8 2.4 2.4 1.5 1.6 1.3 1.2 0.8 1.0 1.0 1.2 1.0 1.0 1.1
7.0 14.7 12.7 10.8 8.5 8.2 8.5 5.6 5.6 12.9 20.3 11.9 7.2 6.1 4.3 3.7 3.4 3.1 3.0 2.9 3.0 2.7 2.4 2.2 2.3 2.4 2.3 2.6 2.6 2.6 2.7 3.0 3.1 2.1 2.2 2.1 2.3 1.8 1.2 1.5 1.5 1.0 1.1 1.3
5.7 14.2 8.7 5.4 3.3 5.2 6.5 5.7 5.5 9.6 10.0 11.3 6.4 5.2 5.1 4.9 4.4 4.2 3.8 3.1 2.9 2.8 2.6 2.4 2.6 2.5 2.2 2.2 2.4 2.7 2.5 2.7 3.0 2.4 2.0 2.2 2.2 1.9 2.0 1.8 1.6 1.5 1.5 1.4
5.2 11.3 8.4 5.8 2.8 3.8 5.7 3.9 3.5 4.4 4.3 5.6 5.1 5.6 4.2 4.0 3.6 3.5 3.6 3.2 3.4 3.4 3.0 2.7 2.7 3.1 2.6 2.1 2.3 2.5 2.4 2.3 2.5 2.2 2.1 1.9 1.9 1.9 2.0 2.1 2.2 1.7 1.6 1.5
6.0 9.2 13.4 9.3 3.5 5.7 9.4 4.6 4.2 4.3 4.2 4.7 6.2 5.4 3.9 3.5 3.6 4.3 4.3 3.9 3.8 3.6 3.2 2.9 2.8 3.1 3.0 2.8 2.7 2.5 2.5 2.2 2.1 1.9 2.0 2.0 1.8 1.7 1.8 2.1 2.4 1.8 2.3 2.0
6.2 8.2 14.9 11.9 8.4 11.9 6.0 3.5 3.4 4.0 4.9 4.7 4.9 4.6 4.1 4.2 4.0 4.3 4.4 4.3 3.9 3.5 3.1 2.7 2.6 2.7 2.8 2.8 2.4 2.2 2.2 2.0 2.1 2.0 1.7 1.8 1.9 1.8 1.9 2.3 2.4 2.4 2.5 2.6
3.5 7.8 16.1 14.5 10.4 6.7 3.1 2.7 4.1 5.0 5.7 4.8 4.4 3.5 3.1 3.0 2.7 3.3 3.5 3.9 4.1 3.8 3.5 3.0 3.0 3.0 2.7 2.7 2.7 2.2 2.0 2.0 2.2 1.8 1.7 1.7 2.0 2.2 2.1 2.6 2.8 2.5 3.2 3.7
3.2 6.5 14.9 15.2 13.0 7.6 4.3 2.2 2.6 4.3 7.1 4.4 3.8 3.8 3.4 2.9 4.5 4.5 3.6 3.7 3.3 3.0 3.0 3.0 3.0 2.7 2.5 2.6 2.3 2.5 2.5 2.4 2.5 2.6 2.4 1.8 2.2 2.6 2.8 3.4 3.5 3.3 3.8 4.5
5.9 9.6 13.3 12.0 12.3 6.6 4.0 2.0 1.9 6.5 9.4 4.2 3.8 4.1 4.1 5.2 6.3 5.1 3.8 3.6 3.3 2.8 2.9 2.6 2.6 2.8 2.8 2.9 2.5 2.7 2.7 3.4 4.2 3.6 3.1 2.8 2.6 2.9 3.6 3.7 3.6 3.3 3.4 3.3
5.9 8.1 8.7 9.3 12.7 8.7 3.6 3.1 6.3 8.1 5.1 4.3 3.8 3.9 4.2 4.3 4.0 3.6 3.3 3.3 3.3 3.0 2.7 2.8 2.9 3.0 3.6 3.3 3.9 3.6 4.2 4.6 4.2 4.2 4.5 4.5 3.9 3.5 3.5 4.1 4.0 3.7 3.4 3.6
5.8 7.7 8.8 9.1 9.2 7.1 5.4 6.2 6.6 5.7 5.2 4.5 4.5 4.2 4.2 4.0 3.9 3.7 3.3 3.2 3.3 3.2 3.1 3.1 3.2 3.2 3.3 3.5 3.9 4.3 4.5 4.4 4.4 4.4 4.5 4.3 3.6 3.3 3.6 4.0 3.8 3.4 3.3 3.4
4.9 4.3 6.1 7.1 6.1 5.3 4.6 4.0 3.8 4.0 4.8 4.7 4.5 4.3 4.0 4.3 4.0 3.8 3.5 3.4 3.5 3.6 3.6 3.4 3.4 3.7 3.5 3.5 3.6 4.3 3.9 4.0 4.2 4.1 3.9 3.6 3.6 3.6 3.4 3.4 3.5 3.9 4.5 4.3
5.0 4.7 6.0 6.3 4.8 3.8 3.3 3.5 3.7 3.4 3.1 3.1 3.1 3.3 3.7 3.8 3.9 3.9 3.8 3.7 3.8 4.1 3.9 3.8 4.0 4.2 4.0 3.9 4.0 3.8 3.5 3.9 4.5 4.0 3.7 3.8 4.0 4.2 4.0 3.5 3.9 4.2 4.7 5.6
5.4 6.7 8.1 7.4 5.0 5.6 4.7 3.6 3.3 3.2 3.1 2.9 2.8 2.8 2.9 3.2 3.6 3.5 3.8 3.9 3.9 4.0 3.9 3.7 3.7 4.1 4.3 4.0 4.1 4.1 3.8 4.0 4.7 4.9 4.1 4.3 4.6 4.7 4.6 4.2 4.0 3.9 4.5 4.3